SCP
3 3 4 3 3 2 3 3 2 2 2 2 1 1 1 1 1 1 1 1 1 0 0 0 1 0 0 0 0 0 0 0 0 0 0 0 0 0 0 0 0 0 0
3 4 4 4 3 3 3 3 3 3 2 2 2 1 1 1 1 1 1 1 1 0 0 1 1 1 0 0 0 0 0 0 0 0 0 0 0 0 0 0 0 0 0
3 4 4 5 4 3 3 3 4 4 3 3 2 2 1 1 1 1 1 1 1 1 1 1 1 1 1 0 0 0 0 0 0 0 0 0 0 0 0 0 0 0 0
4 4 4 5 5 4 3 3 3 4 4 4 3 2 2 1 1 1 1 1 1 1 1 1 1 1 1 1 1 1 0 0 0 0 0 0 0 0 0 0 0 0 0
4 4 4 5 5 4 3 3 3 3 4 4 4 3 2 2 2 1 1 1 1 1 1 1 1 1 1 1 1 1 1 0 0 0 0 0 0 0 0 0 0 0 0
3 3 4 5 5 5 5 4 4 3 4 4 4 3 3 2 2 2 1 1 1 1 1 1 1 1 1 1 1 1 1 0 0 0 0 0 0 0 0 0 0 0 0
3 3 3 4 5 5 5 5 4 4 3 3 3 3 3 3 2 2 2 1 1 1 1 1 1 1 1 1 1 1 1 1 0 0 0 0 0 0 0 0 0 0 0
3 3 3 3 4 4 4 4 3 3 3 3 2 2 2 2 2 2 1 1 1 1 1 1 1 1 1 1 1 1 1 1 0 0 0 0 0 0 0 0 0 0 0
3 3 2 3 3 3 3 3 3 2 2 2 2 2 2 2 1 1 1 1 1 1 1 1 1 1 1 1 1 1 1 1 0 0 0 0 0 1 1 0 0 0 0
2 2 2 2 2 2 2 2 2 2 2 1 1 1 1 1 1 1 1 1 1 1 1 1 1 1 1 1 1 1 1 1 0 0 0 0 1 1 1 1 1 0 0
2 2 2 2 2 2 2 2 2 2 2 1 1 1 1 1 1 1 1 1 1 1 1 1 1 1 1 1 1 1 1 1 1 0 0 1 1 1 1 1 1 1 0
2 2 2 2 2 2 2 2 2 2 2 2 1 1 1 1 1 1 1 1 1 1 1 1 1 1 1 1 1 1 1 1 1 1 1 1 1 1 1 1 1 1 1
3 2 2 2 1 1 1 1 2 2 3 3 2 2 2 1 1 1 1 1 1 1 1 1 1 1 1 1 1 1 1 1 1 1 1 1 1 1 1 1 1 1 1
3 2 2 2 1 1 1 1 1 1 2 3 3 3 3 2 2 2 2 2 2 2 1 1 1 2 2 1 1 1 1 1 1 1 1 1 1 1 1 1 1 1 1
2 2 2 2 1 1 1 1 1 1 1 1 2 3 3 3 3 2 2 2 3 2 2 2 2 2 2 2 2 1 1 1 1 1 1 1 1 1 1 1 1 1 1
2 1 2 2 1 1 1 1 1 1 1 1 1 1 2 2 2 2 2 2 3 3 2 2 2 2 2 2 1 1 1 1 1 1 1 0 0 1 1 1 1 1 1
1 1 1 1 1 1 1 1 1 1 1 1 1 1 1 2 2 2 2 2 2 2 2 2 2 2 2 2 1 1 2 2 1 1 1 1 0 0 1 1 1 1 1
1 1 0 0 1 1 1 1 1 1 1 1 1 1 1 1 1 1 2 2 2 2 2 2 2 2 2 2 1 1 1 2 2 1 1 1 0 0 0 1 1 1 1
0 0 0 0 0 0 0 1 1 1 1 1 1 1 1 1 1 1 1 1 1 1 1 1 2 2 2 2 1 1 1 2 2 1 1 1 1 0 0 0 0 1 1
0 0 0 0 0 0 0 0 0 1 1 1 1 1 1 1 1 1 1 1 1 1 1 1 1 1 1 1 1 1 1 1 1 1 1 1 1 1 0 0 0 0 0
0 0 0 0 0 0 0 0 0 0 0 0 0 0 0 0 0 1 1 1 1 1 1 1 1 1 1 1 1 1 1 1 1 1 1 1 1 1 1 0 0 0 0
0 0 0 0 0 0 0 0 0 0 0 0 0 0 0 0 0 0 0 0 0 0 1 1 1 1 1 1 1 1 1 1 1 1 1 1 1 1 1 0 0 0 0
0 0 0 0 0 0 0 0 0 0 0 0 0 0 0 0 0 0 0 0 0 0 1 1 1 1 0 1 1 1 1 1 0 0 0 0 1 1 0 0 0 0 0
0 0 0 0 0 0 0 0 0 0 0 0 0 0 0 0 0 0 0 0 0 0 1 1 1 1 0 0 1 1 0 0 0 0 0 0 0 0 0 0 0 0 0
0 0 0 0 0 0 0 0 0 0 0 0 0 0 0 0 0 0 0 0 0 0 0 0 1 1 1 0 0 0 1 0 0 0 0 0 0 0 0 0 0 0 0
0 0 0 0 0 0 0 0 0 0 0 0 0 0 0 0 0 0 0 0 0 0 0 0 0 1 0 0 0 1 1 1 0 0 0 0 0 0 0 0 0 0 0
Wind_Speed
5 7 8 8 7 7 6 5 5 5 5 5 5 5 5 5 5 5 5 5 5 6 7 7 8 8 8 9 9 10 10 10 10 11 11 10 10 10 9 9 9 8 12
6 8 9 8 7 6 6 6 5 4 4 4 5 5 4 4 4 4 4 5 5 5 6 6 7 7 8 8 8 8 8 8 8 9 9 8 8 9 10 11 10 7 11
6 8 9 7 7 6 6 6 5 4 4 3 4 4 4 4 4 4 4 4 4 5 5 6 6 7 7 8 8 7 7 6 6 5 5 4 6 8 9 9 10 10 10
7 7 8 8 7 6 5 5 4 4 3 2 2 3 3 4 4 4 4 4 4 4 4 5 6 6 7 7 7 6 6 4 3 2 2 4 5 8 8 8 9 9 9
7 7 8 8 7 6 5 5 4 3 2 1 2 2 2 3 4 4 4 4 3 3 4 5 6 6 6 6 6 6 5 3 3 3 1 4 5 8 8 7 7 8 8
7 7 8 8 7 6 5 5 4 3 2 1 1 1 1 2 3 4 3 3 3 4 4 5 6 6 6 6 6 6 5 4 3 3 2 4 5 7 8 7 7 7 7
7 7 7 8 7 6 5 4 4 3 3 2 1 1 2 2 3 3 3 4 4 4 5 5 6 7 6 6 6 6 5 4 4 2 2 4 5 8 7 6 6 6 6
6 6 6 8 7 6 5 4 4 3 3 2 2 1 2 3 3 4 4 4 5 6 6 6 5 6 7 7 6 6 5 5 4 2 3 4 7 8 7 6 6 6 6
6 5 4 4 5 5 5 4 3 3 2 2 2 2 3 3 4 5 5 5 6 6 7 7 6 6 7 7 7 6 6 6 4 2 3 4 8 8 7 6 6 6 5
5 5 4 3 3 2 2 3 2 2 1 2 2 3 3 4 4 5 6 6 7 7 7 8 8 7 8 8 7 7 7 6 5 4 2 5 10 9 8 7 6 6 5
5 4 4 4 3 2 1 1 1 0 1 2 2 3 3 3 3 4 6 6 7 8 8 9 9 9 8 8 9 8 7 4 5 3 3 8 10 10 9 8 7 7 6
4 4 4 4 4 3 2 1 0 0 0 1 1 1 2 2 2 3 5 7 8 8 9 9 9 9 7 5 6 8 4 6 5 3 4 11 11 10 10 9 8 8 7
4 5 5 4 4 4 3 2 1 1 1 1 2 2 2 2 2 2 1 3 4 6 5 6 7 5 5 4 4 5 6 6 4 3 5 12 12 11 11 10 10 9 9
4 5 5 5 4 4 3 3 2 2 2 2 2 2 2 2 2 2 1 2 2 2 4 4 4 6 6 6 6 7 7 5 3 3 5 11 11 12 12 11 10 10 10
4 4 4 5 5 4 3 3 3 3 3 3 2 3 2 2 2 2 2 2 2 2 2 3 4 5 6 6 6 7 7 6 5 4 4 10 12 11 12 12 12 12 11
4 4 3 4 4 4 3 3 3 2 2 2 2 3 3 2 2 2 2 2 2 2 2 3 4 4 4 4 6 6 6 6 5 4 4 6 11 12 12 13 13 13 12
3 3 3 3 4 4 4 4 3 3 3 2 2 3 3 3 3 3 3 3 3 3 3 2 4 3 3 4 5 5 5 5 5 5 5 4 6 10 11 13 13 13 13
3 3 3 3 4 4 4 3 3 3 3 2 2 3 3 3 3 3 3 3 3 3 2 2 2 3 3 3 3 4 4 4 5 5 5 5 5 5 8 12 12 12 12
2 2 2 2 3 3 3 3 3 3 2 2 2 2 3 4 4 3 3 3 3 2 3 3 2 2 3 3 4 3 3 3 4 4 5 5 5 5 5 8 11 11 10
2 2 2 2 2 3 2 2 2 2 2 2 2 3 4 4 4 3 3 3 2 2 2 3 3 3 2 3 4 3 3 3 3 4 4 4 4 5 6 6 6 7 10
2 1 2 2 2 3 2 3 3 3 3 3 3 4 4 5 5 4 3 3 2 2 3 3 2 3 3 2 2 2 3 3 4 3 4 4 4 5 5 5 5 5 5
2 1 1 1 2 2 2 2 2 3 2 3 3 4 4 5 5 4 3 3 3 2 2 3 2 2 2 1 1 1 2 3 3 4 4 4 5 4 5 5 5 5 4
2 1 0 1 1 2 2 2 2 2 2 3 3 3 4 5 5 4 4 3 3 2 2 3 3 3 3 3 2 2 2 3 2 3 4 4 4 4 4 4 5 5 5
2 1 0 0 1 1 1 2 2 2 3 3 3 3 4 5 5 4 3 3 3 3 2 3 3 3 3 3 3 3 3 1 2 2 2 3 4 5 5 4 5 5 5
2 1 1 0 1 1 1 2 3 3 3 3 3 4 4 4 4 3 3 3 3 3 3 3 3 3 3 3 3 2 3 2 3 2 3 2 2 3 4 4 4 4 5
2 2 1 1 1 1 1 2 2 3 3 4 4 4 4 3 3 3 3 3 3 3 3 3 3 4 3 4 3 3 3 2 2 2 3 3 3 3 4 4 4 4 4
Wind_Direction
94 105 108 107 102 98 96 98 102 114 118 123 121 119 116 111 110 107 106 114 120 120 121 122 119 114 107 101 97 94 91 90 90 90 87 83 84 83 80 82 82 77 82
109 113 108 107 106 101 96 91 89 98 109 123 129 129 131 133 128 120 119 119 128 128 126 125 127 124 119 112 108 106 105 105 107 105 100 89 84 85 82 74 80 89 86
98 110 112 101 105 101 95 92 85 88 95 117 138 144 151 153 151 143 136 128 126 133 136 134 132 131 127 121 119 119 120 125 129 137 135 116 101 96 91 87 89 92 91
89 101 107 98 101 100 96 93 91 86 90 100 133 154 165 171 171 169 161 148 137 130 140 141 139 132 132 133 133 134 140 153 167 194 170 134 116 109 104 100 95 93 92
83 91 101 98 96 91 88 86 85 86 86 102 121 147 168 182 189 188 180 171 155 139 142 150 148 143 141 142 146 151 165 192 235 237 152 109 107 117 112 107 101 101 98
86 87 95 96 93 86 80 78 78 72 65 70 107 168 185 200 201 198 193 179 170 163 155 163 162 159 157 159 162 169 189 220 257 243 157 118 113 128 123 117 114 111 106
86 87 91 86 86 81 73 70 66 57 44 34 6 268 230 225 220 208 203 193 190 186 183 177 179 177 175 177 181 186 203 236 243 240 125 116 129 138 137 134 129 121 115
86 91 94 82 82 77 71 63 54 46 33 20 355 324 282 250 237 227 218 209 205 203 200 198 194 194 189 190 195 201 213 243 251 214 133 126 140 145 146 146 143 138 131
78 83 90 95 88 77 69 55 45 36 21 356 331 316 305 290 257 239 229 219 214 212 211 210 205 203 199 199 201 205 217 236 265 250 159 137 149 157 160 161 162 153 148
66 64 64 64 73 78 82 64 41 21 349 315 285 288 282 274 258 245 232 223 222 218 216 214 210 211 210 206 203 205 217 235 248 242 172 153 159 171 175 175 176 170 167
64 50 49 44 38 37 36 67 47 306 292 285 266 263 263 252 242 234 228 225 223 220 218 217 214 213 212 210 207 207 211 228 237 225 172 163 171 183 189 190 191 188 186
66 48 39 32 22 13 2 21 326 293 283 280 275 256 261 266 257 249 233 225 224 222 221 222 219 216 212 210 208 204 214 226 234 213 174 170 179 190 197 198 199 200 197
64 49 35 24 17 9 353 349 345 332 308 292 296 301 293 283 272 256 230 216 219 216 217 221 218 215 214 213 202 204 218 224 222 207 177 174 183 195 202 204 207 207 207
61 50 34 16 11 7 359 346 339 342 342 335 332 323 313 302 293 280 254 235 220 215 212 209 209 214 218 218 210 207 215 222 222 197 179 177 185 198 206 207 210 211 212
65 54 36 17 9 5 358 341 352 352 347 342 345 333 326 306 297 295 277 259 247 236 224 222 217 218 220 221 217 213 213 219 218 206 179 184 187 196 206 211 215 217 217
66 53 40 23 14 4 357 350 344 342 333 335 339 335 333 324 311 297 287 280 268 254 239 235 231 229 224 222 223 218 213 214 215 206 183 189 194 198 208 214 218 220 220
72 56 37 27 19 5 358 350 342 332 336 341 335 330 326 317 312 302 294 287 284 283 267 253 250 246 235 230 230 226 217 211 208 208 194 188 196 205 209 216 220 222 222
73 58 35 20 15 2 356 340 331 330 336 334 331 323 318 316 310 301 290 287 296 296 280 262 250 253 248 238 236 229 222 213 212 208 200 191 190 195 209 214 215 220 224
84 68 51 24 10 359 345 329 321 321 328 325 326 321 321 319 312 301 285 279 286 285 281 279 268 247 246 246 243 234 227 216 213 214 207 198 192 190 193 205 210 213 219
93 73 50 30 14 354 338 332 332 328 333 333 332 328 323 316 314 308 293 284 280 276 280 280 275 268 248 243 255 249 241 232 217 213 214 207 202 197 193 192 201 212 217
101 69 35 17 8 4 353 346 344 342 336 331 332 334 329 322 315 308 301 297 288 269 266 274 269 271 263 253 253 259 259 247 233 218 212 210 210 206 198 196 195 199 208
130 102 28 12 9 3 350 334 312 313 315 317 325 327 325 321 317 306 300 295 290 277 271 273 272 268 270 261 223 236 247 251 244 231 215 214 214 210 209 206 203 203 202
150 137 37 353 1 357 341 328 327 328 320 323 326 324 318 315 312 306 303 298 288 274 260 267 263 246 256 264 239 212 213 231 259 236 223 219 214 215 215 208 210 210 209
159 135 139 342 333 333 339 333 326 314 311 311 311 307 308 313 316 315 311 308 298 282 270 270 269 257 247 250 257 247 248 231 228 265 257 236 224 223 221 218 215 215 215
143 147 172 250 287 309 319 311 308 308 307 308 311 309 311 310 313 316 316 307 301 293 288 278 275 266 255 245 239 246 256 265 241 236 257 252 250 238 230 224 219 216 215
141 148 178 221 274 299 311 310 308 309 309 308 307 307 305 305 308 309 310 311 307 299 294 289 281 273 265 259 251 243 236 234 230 240 248 244 250 250 243 229 222 216 214